Date,TemperatureHighF,TemperatureAvgF,TemperatureLowF,DewpointHighF,DewpointAvgF,DewpointLowF,HumidityHigh,HumidityAvg,HumidityLow,PressureMaxIn,PressureMinIn,WindSpeedMaxMPH,WindSpeedAvgMPH,GustSpeedMaxMPH,PrecipitationSumIn
2013-6-1,76.4,72.9,70.9,69.8,66.8,62.1,89,81,70,30.10,29.98,42,20,49,0.00
2013-6-2,73.8,72.1,70.7,69.7,67.0,63.4,92,84,72,30.10,29.99,47,28,53,0.00
2013-6-3,75.2,72.2,70.4,67.2,64.9,60.3,86,78,63,30.11,29.99,50,28,57,0.00
2013-6-4,75.8,71.8,70.0,67.6,65.0,60.1,88,79,63,30.07,29.96,41,25,46,0.00
2013-6-5,73.3,70.7,68.3,67.2,65.3,63.7,87,83,76,30.06,29.99,42,27,45,0.00
2013-6-6,73.6,71.2,67.2,66.7,65.1,63.9,90,81,74,30.07,29.95,37,23,44,0.00
2013-6-7,73.3,70.1,66.0,65.5,63.5,61.2,91,80,70,30.08,29.95,43,24,49,0.00
2013-6-8,74.1,70.4,67.5,66.8,64.2,61.5,88,81,73,30.07,29.98,38,22,43,0.00
2013-6-9,73.7,72.2,70.3,66.6,65.5,63.8,83,79,75,30.10,30.05,32,19,39,0.00
2013-6-10,73.5,71.7,69.5,66.9,64.9,61.4,90,79,66,30.08,30.00,35,20,43,0.00
2013-6-11,74.9,71.9,70.4,66.2,64.2,61.1,86,77,64,30.04,29.98,35,23,42,0.00
2013-6-12,74.4,72.8,72.0,61.9,60.7,59.5,69,66,64,30.05,30.00,32,23,44,0.00
2013-6-13,74.8,72.0,70.1,67.6,66.1,64.1,91,82,74,30.11,30.01,47,29,54,0.00
2013-6-14,74.4,72.1,69.4,66.9,65.2,62.0,89,79,71,30.10,29.98,45,24,45,0.00
2013-6-15,73.7,71.5,69.3,66.8,64.0,57.6,87,77,60,30.04,29.92,45,23,45,0.00
2013-6-16,75.7,72.6,69.3,66.1,63.9,59.7,85,74,63,30.05,29.92,43,21,45,0.00
2013-6-17,75.3,72.4,69.6,67.9,65.0,61.5,86,78,69,30.06,29.97,38,19,39,0.00
2013-6-18,77.3,73.5,70.8,68.2,66.5,64.3,85,79,73,30.08,29.97,42,22,43,0.00
2013-6-19,77.0,73.6,70.6,65.9,63.1,59.5,84,70,55,30.09,30.00,40,17,41,0.00
2013-6-20,75.9,72.0,67.7,67.4,65.2,62.2,91,79,67,30.08,29.98,35,16,36,0.00
2013-6-21,73.7,71.3,69.0,67.4,65.1,61.8,91,81,68,30.07,29.96,44,23,44,0.00
2013-6-22,75.7,71.5,69.2,67.7,65.0,62.6,87,80,69,30.12,29.97,53,28,54,0.00
2013-6-23,74.8,71.7,68.4,67.8,65.9,62.8,91,82,74,30.13,30.02,49,26,49,0.00
2013-6-24,75.6,71.6,67.7,66.8,63.7,58.3,91,77,60,30.12,30.03,40,22,41,0.00
2013-6-25,72.4,70.0,68.6,68.4,66.5,64.8,93,89,82,30.11,30.02,38,17,38,0.08
2013-6-26,73.2,71.1,69.6,67.0,65.7,63.6,89,83,78,30.10,29.99,36,19,36,0.00
2013-6-27,75.3,72.0,69.3,65.9,63.4,59.0,86,75,62,30.05,29.96,39,19,39,0.00
2013-6-28,74.8,71.3,68.5,67.0,64.6,60.4,90,80,69,30.02,29.93,40,20,41,0.01
2013-6-29,75.5,71.4,69.4,66.8,63.1,59.3,82,75,68,30.01,29.93,38,18,39,0.00
2013-6-30,75.3,73.0,71.0,67.5,65.1,61.2,86,76,64,30.06,29.96,37,21,37,0.00